:format(webp):version(20260902T17583255Z)/ddfcdn.realtor.ca/listing/TS639239526153670000/reb82/highres/6/n13737196_1.jpg)
#1003 325 SOUTH PARK ROAD, Markham, ONCommerce Valley
:format(webp):version(20260902T17301492Z)/ddfcdn.realtor.ca/listing/TS639239526148770000/reb82/highres/4/n13737134_1.jpg)
124 BARONS STREET, Vaughan, ONKleinburg
:format(webp):version(20260902T17301461Z)/ddfcdn.realtor.ca/listing/TS639239526145400000/reb82/highres/2/n13737122_1.jpg)
#116 460 WILLIAM GRAHAM DRIVE, Aurora, ONRural Aurora
:format(webp):version(20260902T17301449Z)/ddfcdn.realtor.ca/listing/TS639239526143800000/reb82/highres/2/n13737102_1.jpg)
28 CUPPLES FARM LANE, East Gwillimbury, ONMt Albert
:format(webp):version(20260902T18322232Z)/ddfcdn.realtor.ca/listing/TS639239526135400000/reb82/highres/2/n13737022_1.jpg)
#1401 9085 JANE STREET, Vaughan, ONConcord
:format(webp):version(20260902T17300054Z)/ddfcdn.realtor.ca/listing/TS639239526004400000/reb47/highres/4/x13737224_1.jpg)
245 MACKENZIE STREET, Guelph/Eramosa, ONRockwood
:format(webp):version(20260902T18442068Z)/ddfcdn.realtor.ca/listing/TS639239526003230000/reb47/highres/6/x13737066_1.jpg)
210 LAIRD LANE, Saugeen Shores, ON
:format(webp):version(20260902T17300027Z)/ddfcdn.realtor.ca/listing/TS639239526001700000/reb47/highres/6/x13737036_1.jpg)
31 JOHN STREET, East Zorra-Tavistock, ONTavistock
:format(webp):version(20260902T17291827Z)/ddfcdn.realtor.ca/listing/TS639239525580700000/reb14/highres/6/40860026_1.jpg)
#445 16 CONCORD Place, Grimsby, ONGrimsby Beach (540)
:format(webp):version(20260902T17282614Z)/ddfcdn.realtor.ca/listing/TS639239525060030000/reb47/highres/4/s13737124_1.jpg)
11 GRAND POPLAR LANE, Wasaga Beach, ON
:format(webp):version(20260902T17282636Z)/ddfcdn.realtor.ca/listing/TS639239525061930000/reb47/highres/4/s13737164_1.jpg)
1657 SHORE LANE, Wasaga Beach, ON
:format(webp):version(20260903T1731415Z)/ddfcdn.realtor.ca/listing/TS639240373256970000/reb82/highres/6/e13737236_1.jpg)
88 LAKE DRIVEWAY W, Ajax, ONSouth West
:format(webp):version(20260902T1728195Z)/ddfcdn.realtor.ca/listing/TS639239524994530000/reb82/highres/2/e13737152_1.jpg)
118 ROSSLAND ROAD W, Oshawa, ONCentennial
:format(webp):version(20260902T17412751Z)/ddfcdn.realtor.ca/listing/TS639239532875070000/reb82/highres/0/e13737130_1.jpg)
#40 90 CROCKAMHILL DRIVE, Toronto, ONAgincourt North
:format(webp):version(20260902T17281931Z)/ddfcdn.realtor.ca/listing/TS639239524992470000/reb82/highres/8/e13737068_1.jpg)
#1101 410 MCLEVIN AVENUE, Toronto, ONMalvern
:format(webp):version(20260902T20160937Z)/ddfcdn.realtor.ca/listing/TS639239524339130000/reb82/highres/4/c13737214_1.jpg)
80 BERKINSHAW CRESCENT, Toronto, ONBanbury-Don Mills
:format(webp):version(20260902T17271349Z)/ddfcdn.realtor.ca/listing/TS639239524334600000/reb82/highres/0/c13737120_1.jpg)
#5212 70 TEMPERANCE STREET, Toronto, ONBay Street Corridor
:format(webp):version(20260902T17265489Z)/ddfcdn.realtor.ca/listing/TS639239524148370000/reb95/highres/7/26021217_1.jpg)
6689 Charleston STREET, North Buxton, ON
:format(webp):version(20260902T17265066Z)/ddfcdn.realtor.ca/listing/TS639239524105800000/reb34/highres/7/26021477_1.jpg)
21240 DOCKSIDE, Tilbury North, ON
:format(webp):version(20260902T17265005Z)/ddfcdn.realtor.ca/listing/TS639239524095470000/reb34/highres/6/26021486_1.jpg)
324 JORDAN LANE, Lakeshore, ON
:format(webp):version(20260902T17251472Z)/ddfcdn.realtor.ca/listing/TS639239523146200000/reb93/highres/6/x13737136_1.jpg)
9137 COUNTY ROAD 6 ROAD, Augusta, ONAugusta Twp
:format(webp):version(20260903T17235651Z)/ddfcdn.realtor.ca/listing/TS639239522011100000/reb114/highres/0/x13737240_1.jpg)
36 DERBYSHIRE DRIVE, Fort Erie, ONRidgeway
:format(webp):version(20260902T19240414Z)/ddfcdn.realtor.ca/listing/TS639239522008170000/reb114/highres/0/x13737150_1.jpg)
161 CATHERINE STREET, Fort Erie, ONCentral
:format(webp):version(20260902T17225649Z)/ddfcdn.realtor.ca/listing/TS639239521761270000/reb76/highres/8/x13737238_1.jpg)
484 ANNABLE ROAD, North Dundas, ONWinchester